Inver Grove Heights, MN

11:30 AM CST on January 17, 2017 (GMT -0600)
South Saint Paul Municipal-Fleming

Weather History for KSGS - February, 2012

Change the Weather History Date:

Saturday, February 4, 2012

  Actual Average (KSTP) Record (KSTP)
Temperature  
Mean Temperature 30 °F -  
Max Temperature 37 °F 26 °F 52 °F (2005)
Min Temperature 24 °F 11 °F -11 °F (2004)
Degree Days  
Heating Degree Days 34    
Moisture  
Dew Point 27 °F    
Average Humidity 91    
Maximum Humidity 97    
Minimum Humidity 71    
Precipitation  
Precipitation 0.00 in - - ()
Sea Level Pressure  
Sea Level Pressure 30.38 in    
Wind  
Wind Speed 5 mph (NNW)    
Max Wind Speed 8 mph    
Max Gust Speed -    
Visibility 6 miles    
Events Fog    
Averages and records for this station are not official NWS values.
T = Trace of Precipitation, MM = Missing Value Source: NWS Daily Summary

Daily Weather History Graph

Daily Weather History Graph

Search for Another Location

Airport or City:

Trip Planner

Search our weather history database for the weather conditions in past years. The results will help you decide how hot, cold, wet, or windy it might be!

Date:

Astronomy

Feb. 04, 2012 Rise Set
Actual Time 7:28 AM CST 5:24 PM CST
Civil Twilight 6:57 AM CST 5:55 PM CST
Nautical Twilight 6:22 AM CST 6:29 PM CST
Astronomical Twilight 5:48 AM CST 7:04 PM CST
Moon 2:17 PM CST (2/4) 4:59 AM CST (2/4)
Length of Visible Light 10h 57m
Length of Day
9h 55m
Waxing Gibbous, 89% of the Moon is Illuminated
Feb 4
Waxing Gibbous
Feb 7
Full
Feb 14
Last Quarter
Feb 21
New
Feb 29
First Quarter

Hourly Weather History & Observations

Time (CST) Temp. Windchill Dew Point Humidity Pressure Visibility Wind Dir Wind Speed Gust Speed Precip Events Conditions
12:14 AM 28.4 °F 24.6 °F 26.8 °F 94% 30.44 in 7.0 mi North 3.5 mph - N/A   Clear
12:34 AM 28.4 °F 23.3 °F 26.6 °F 93% 30.44 in 7.0 mi North 4.6 mph - N/A   Clear
12:54 AM 28.9 °F 22.8 °F 27.3 °F 94% 30.44 in 7.0 mi North 5.8 mph - N/A   Clear
1:14 AM 28.8 °F 22.6 °F 27.0 °F 93% 30.45 in 7.0 mi North 5.8 mph - N/A   Clear
1:34 AM 28.4 °F 21.2 °F 26.6 °F 93% 30.44 in 7.0 mi North 6.9 mph - N/A   Clear
1:55 AM 28.0 °F 22.8 °F 26.4 °F 94% 30.43 in 7.0 mi North 4.6 mph - N/A   Clear
2:14 AM 28.0 °F 22.8 °F 26.4 °F 94% 30.42 in 7.0 mi North 4.6 mph - N/A   Clear
2:34 AM 27.3 °F 23.4 °F 25.9 °F 94% 30.41 in 7.0 mi North 3.5 mph - N/A   Clear
2:54 AM 26.8 °F - 25.5 °F 95% 30.40 in 5.0 mi Calm Calm - N/A   Clear
3:14 AM 26.4 °F 22.4 °F 25.3 °F 96% 30.39 in 5.0 mi North 3.5 mph - N/A   Clear
3:34 AM 26.6 °F 21.2 °F 25.5 °F 96% 30.39 in 4.0 mi North 4.6 mph - N/A   Scattered Clouds
3:54 AM 25.7 °F 21.5 °F 24.8 °F 96% 30.38 in 4.0 mi North 3.5 mph - N/A   Scattered Clouds
4:14 AM 25.7 °F - 24.8 °F 96% 30.38 in 5.0 mi Calm Calm - N/A   Clear
4:34 AM 25.5 °F 19.9 °F 24.6 °F 96% 30.39 in 4.0 mi North 4.6 mph - N/A   Scattered Clouds
4:55 AM 25.7 °F 21.5 °F 24.8 °F 96% 30.39 in 3.0 mi North 3.5 mph - N/A   Overcast
5:14 AM 25.5 °F 21.3 °F 24.6 °F 96% 30.40 in 1.8 mi North 3.5 mph - N/A   Overcast
5:34 AM 25.2 °F 19.5 °F 24.3 °F 96% 30.40 in 1.8 mi North 4.6 mph - N/A   Overcast
5:54 AM 24.8 °F 19.1 °F 23.9 °F 96% 30.40 in 2.0 mi North 4.6 mph - N/A   Overcast
6:14 AM 24.8 °F 19.1 °F 23.7 °F 96% 30.41 in 2.5 mi North 4.6 mph - N/A   Overcast
6:34 AM 24.6 °F 17.7 °F 23.5 °F 96% 30.40 in 1.8 mi North 5.8 mph - N/A   Overcast
6:54 AM 24.6 °F 20.3 °F 23.5 °F 96% 30.40 in 2.0 mi North 3.5 mph - N/A   Overcast
7:14 AM 24.6 °F 18.8 °F 23.5 °F 96% 30.40 in 2.0 mi NNW 4.6 mph - N/A   Overcast
7:34 AM 24.8 °F 20.5 °F 23.7 °F 96% 30.40 in 2.0 mi North 3.5 mph - N/A   Overcast
7:54 AM 25.2 °F 20.9 °F 23.9 °F 95% 30.40 in 2.0 mi North 3.5 mph - N/A   Overcast
8:14 AM 25.3 °F 19.7 °F 24.3 °F 96% 30.40 in 0.5 mi North 4.6 mph - N/A Fog Light Freezing Fog
8:34 AM 25.7 °F 21.5 °F 24.8 °F 96% 30.41 in 0.5 mi North 3.5 mph - N/A Fog Light Freezing Fog
8:54 AM 26.1 °F 20.5 °F 24.8 °F 95% 30.41 in 0.8 mi North 4.6 mph - N/A   Overcast
9:14 AM 26.2 °F 22.1 °F 25.3 °F 96% 30.42 in 1.0 mi North 3.5 mph - N/A   Overcast
9:34 AM 26.6 °F 22.6 °F 25.7 °F 96% 30.41 in 1.5 mi North 3.5 mph - N/A   Overcast
9:54 AM 27.1 °F 23.2 °F 26.2 °F 96% 30.42 in 2.0 mi NNW 3.5 mph - N/A   Overcast
10:14 AM 27.5 °F 23.6 °F 26.6 °F 96% 30.42 in 2.5 mi North 3.5 mph - N/A   Overcast
10:34 AM 27.9 °F 24.0 °F 27.1 °F 97% 30.41 in 3.0 mi NNW 3.5 mph - N/A   Overcast
10:54 AM 28.4 °F 24.6 °F 27.5 °F 96% 30.40 in 3.0 mi WNW 3.5 mph - N/A   Overcast
11:14 AM 29.1 °F 25.4 °F 28.4 °F 97% 30.40 in 3.0 mi NNW 3.5 mph - N/A   Mist
11:35 AM 28.9 °F 25.2 °F 28.0 °F 96% 30.40 in 4.0 mi NW 3.5 mph - N/A   Mostly Cloudy
11:54 AM 29.7 °F 24.7 °F 28.9 °F 97% 30.39 in 4.0 mi WNW 4.6 mph - N/A   Mostly Cloudy
12:14 PM 30.4 °F 24.5 °F 29.7 °F 97% 30.39 in 5.0 mi NW 5.8 mph - N/A   Overcast
12:34 PM 31.1 °F 24.5 °F 30.4 °F 97% 30.38 in 5.0 mi NNW 6.9 mph - N/A   Overcast
12:55 PM 31.6 °F 26.0 °F 30.9 °F 97% 30.37 in 7.0 mi North 5.8 mph - N/A   Mostly Cloudy
1:14 PM 32.2 °F 27.7 °F 31.1 °F 96% 30.37 in 10.0 mi North 4.6 mph - N/A   Scattered Clouds
1:34 PM 34.0 °F 29.8 °F 30.0 °F 85% 30.37 in 7.0 mi West 4.6 mph - N/A   Clear
1:55 PM 34.7 °F 31.8 °F 29.1 °F 80% 30.36 in 10.0 mi North 3.5 mph - N/A   Clear
2:14 PM 34.9 °F 29.9 °F 28.9 °F 79% 30.35 in 10.0 mi WNW 5.8 mph - N/A   Clear
2:34 PM 35.8 °F 33.0 °F 28.9 °F 76% 30.34 in 10.0 mi NNW 3.5 mph - N/A   Clear
2:54 PM 36.3 °F 32.5 °F 28.6 °F 74% 30.34 in 10.0 mi NW 4.6 mph - N/A   Clear
3:14 PM 36.7 °F 32.9 °F 28.6 °F 72% 30.34 in 10.0 mi NNW 4.6 mph - N/A   Clear
3:34 PM 37.0 °F 31.6 °F 28.6 °F 71% 30.33 in 10.0 mi WNW 6.9 mph - N/A   Clear
3:55 PM 37.0 °F 31.6 °F 28.4 °F 71% 30.32 in 10.0 mi WNW 6.9 mph - N/A   Clear
4:14 PM 37.0 °F 31.6 °F 28.0 °F 70% 30.32 in 10.0 mi WNW 6.9 mph - N/A   Clear
4:34 PM 36.9 °F 30.7 °F 28.4 °F 71% 30.31 in 10.0 mi WNW 8.1 mph - N/A   Clear
4:54 PM 36.0 °F 33.3 °F 28.4 °F 74% 30.32 in 10.0 mi WNW 3.5 mph - N/A   Clear
5:14 PM 35.1 °F 30.1 °F 28.4 °F 77% 30.32 in 10.0 mi West 5.8 mph - N/A   Clear
5:34 PM 34.3 °F 29.2 °F 28.4 °F 79% 30.31 in 10.0 mi WNW 5.8 mph - N/A   Clear
5:54 PM 33.8 °F 29.6 °F 28.4 °F 81% 30.32 in 10.0 mi West 4.6 mph - N/A   Clear
6:14 PM 32.4 °F 25.3 °F 28.2 °F 85% 30.32 in 10.0 mi West 8.1 mph - N/A   Clear
6:34 PM 31.5 °F 24.9 °F 27.9 °F 87% 30.32 in 10.0 mi West 6.9 mph - N/A   Clear
6:54 PM 30.9 °F 26.2 °F 27.7 °F 88% 30.32 in 7.0 mi West 4.6 mph - N/A   Clear
7:14 PM 30.9 °F 26.2 °F 28.2 °F 90% 30.32 in 7.0 mi West 4.6 mph - N/A   Mostly Cloudy
7:34 PM 31.1 °F 25.4 °F 28.6 °F 90% 30.32 in 7.0 mi West 5.8 mph - N/A   Overcast
7:54 PM 31.1 °F 26.4 °F 29.1 °F 92% 30.32 in 7.0 mi WNW 4.6 mph - N/A   Overcast
8:14 PM 31.1 °F 27.7 °F 29.3 °F 93% 30.32 in 7.0 mi WNW 3.5 mph - N/A   Overcast
8:34 PM 31.6 °F 27.0 °F 30.0 °F 94% 30.32 in 7.0 mi West 4.6 mph - N/A   Overcast
8:54 PM 31.3 °F 27.9 °F 29.8 °F 94% 30.32 in 7.0 mi West 3.5 mph - N/A   Mostly Cloudy
9:15 PM 30.7 °F 26.0 °F 29.1 °F 94% 30.31 in 7.0 mi West 4.6 mph - N/A   Scattered Clouds
9:34 PM 30.6 °F 25.8 °F 29.1 °F 94% 30.31 in 7.0 mi West 4.6 mph - N/A   Clear
9:54 PM 30.2 °F 25.4 °F 28.8 °F 94% 30.31 in 7.0 mi West 4.6 mph - N/A   Clear
10:14 PM 30.0 °F 26.5 °F 28.4 °F 94% 30.31 in 7.0 mi WNW 3.5 mph - N/A   Clear
10:35 PM 29.3 °F 24.3 °F 27.9 °F 94% 30.32 in 7.0 mi WNW 4.6 mph - N/A   Clear
10:55 PM 29.3 °F 24.3 °F 27.9 °F 94% 30.32 in 10.0 mi NW 4.6 mph - N/A   Clear
11:14 PM 29.1 °F 23.0 °F 27.5 °F 94% 30.32 in 10.0 mi NW 5.8 mph - N/A   Clear
11:35 PM 29.7 °F 22.8 °F 27.3 °F 91% 30.33 in 10.0 mi NNW 6.9 mph - N/A   Clear
11:54 PM 29.3 °F 24.3 °F 26.6 °F 90% 30.33 in 10.0 mi NW 4.6 mph - N/A   Clear